Regional Weather Roundup
Issued by NWS

Home | Current Version | Previous Version | Text Only | Print | Product List | Glossary On
Versions: 1 2 3 4 5 6 7 8 9 10 11 12 13 14 15 16 17 18 19 20 21 22 23 24 25 26 27 28 29 30 31 32 33 34 35 36 37 38 39 40 41 42 43 44 45 46 47 48
000
ASUS45 KBOU 271007
RWRCO

WEATHER ROUNDUP FOR COLORADO
NATIONAL WEATHER SERVICE DENVER/BOULDER CO
400 AM MDT FRI MAR 27 2015

NOTE: "FAIR" INDICATES FEW OR NO CLOUDS BELOW 12000 FEET WITH NO
SIGNIFICANT WEATHER AND/OR OBSTRUCTIONS TO VISIBILITY.

COZ001>005-013-030-031-271100-
...NORTHWEST COLORADO...

CITY           SKY/WX    TMP DP  RH WIND       PRES   REMARKS
CRAIG          CLEAR     28  25  88 CALM      30.33S
HAYDEN         CLEAR     34  27  75 N3        30.33S
MEEKER         CLEAR     31  25  78 SE5       30.35R WCI  26
MOUNT WERNER   NOT AVBL
STEAMBOAT SPGS NOT AVBL
WALDEN         PTCLDY    30  25  80 SE6       30.30F WCI  24
$$

COZ006>008-011-271100-
...WEST CENTRAL VALLEYS...

CITY           SKY/WX    TMP DP  RH WIND       PRES   REMARKS
GRAND JUNCTION CLEAR     38  22  52 SE12      30.29S
MONTROSE       CLEAR     34  23  64 S8        30.34S WCI  27
EAGLE          CLEAR     32  27  80 E3        30.35S
RIFLE          CLEAR     34  23  64 E3        30.33S
DELTA          CLEAR     36  23  60 NE3       30.32S
NUCLA          CLEAR     34  21  60 E9        30.36F WCI  26
$$

COZ017>023-064>068-271100-
...SOUTHWEST COLORADO...

CITY           SKY/WX    TMP DP  RH WIND       PRES   REMARKS
DURANGO        CLEAR     28  19  69 NE3       30.31S
CORTEZ         CLEAR     30  18  60 E8        30.32F WCI  22
PAGOSA SPRINGS CLEAR     33  20  57 NW5       30.33F WCI  29
TELLURIDE      NOT AVBL
WOLF CREEK PAS PTCLDY    27  16  63 W8G16     30.47S WCI  18
$$

COZ009-010-012-014-032>034-037-058>063-271100-
...CENTRAL COLORADO...

CITY           SKY/WX    TMP DP  RH WIND       PRES   REMARKS
ASPEN          CLEAR     30  23  75 S7        30.35S WCI  23
BUENA VISTA    CLEAR     34  22  60 CALM      30.29S
COPPER MTN     NOT AVBL
BERTHOUD PASS  HAZE      19  12  73 NW26G32   30.37F VSB<1/4 WCI   1
COTTONWOOD PAS CLEAR     39  19  45 NW12G26   30.33S
GUNNISON       PTCLDY    27  19  74 CALM      30.38F
KREMMLING      CLEAR     32  27  80 E3        30.33F
LEADVILLE      CLEAR     29  17  61 N10       30.35F WCI  20
SALIDA         CLEAR     39  22  50 N6        30.35S
SUNLIGHT       CLEAR     32  21  64 W6          N/A  WCI  26
WILKERSON PASS CLEAR     28  19  69 NW6       30.38S WCI  22
$$

COZ069>075-271100-
...SAN LUIS VALLEY/SANGRE DE CRISTO MOUNTAINS...

CITY           SKY/WX    TMP DP  RH WIND       PRES   REMARKS
ALAMOSA        MOCLDY    29  17  61 S5        30.30S WCI  24
LA VETA PASS   PTCLDY    32  18  55 S8        30.33S WCI  25
SAGUACHE       PTCLDY    34  19  55 NE8       30.31F WCI  27
$$

COZ035-036-038>040-271100-
...NORTHERN COLORADO FRONT RANGE...

CITY           SKY/WX    TMP DP  RH WIND       PRES   REMARKS
DENVER INTL AP CLOUDY    43  32  65 SW10      30.16S
DMNS CITY PARK   N/A     41  28  59 NW2       30.17S
AURORA         MOCLDY    42  32  68 SW7       30.18S
FRONT RANGE AP NOT AVBL
ERIE MUNI ARPT NOT AVBL
BOULDER MUN AP NOT AVBL
CENTENNIAL     PTCLDY    40  31  70 E3        30.17S
BROOMFIELD     PTCLDY    41  28  60 CALM      30.18S
FORT COLLINS   PTCLDY    39  30  70 CALM      30.17F
LONGMONT       NOT AVBL
$$

COZ041-046-047-076>085-087-088-271100-
...PIKES PEAK/PALMER DIVIDE AND SOUTHERN FOOTHILLS...

CITY           SKY/WX    TMP DP  RH WIND       PRES   REMARKS
COLO. SPRINGS  PTCLDY    34  23  64 N5        30.21S WCI  30
A. F. ACADEMY  CLEAR     32  25  76 NE5       30.20S WCI  27
ELLICOTT       CLEAR    N/A N/A N/A S5        30.18F
FALCON         NOT AVBL
FORT CARSON    CLEAR     34  24  66 NW5       30.19S WCI  30
LIMON          CLOUDY    41  30  65 S8        30.16F
MONUMENT HILL  MOCLDY    34  27  75 W7        30.20S WCI  28
TRINIDAD       CLEAR     40  25  55 W13       30.17F
$$

COZ042>045-048>051-090-091-271100-
...NORTHEAST COLORADO...

CITY           SKY/WX    TMP DP  RH WIND       PRES   REMARKS
GREELEY ARPT   CLOUDY    41  30  65 NW7       30.13F
AKRON          MOCLDY    34  31  88 SE7       30.15F WCI  28
BURLINGTON     CLOUDY    38  30  73 SE8       30.16S
WRAY           CLOUDY    35  31  84 E9        30.18F WCI  28
STERLING       NOT AVBL
HOLYOKE        NOT AVBL
FORT MORGAN    MOCLDY    43  31  60 N12       30.14F
$$

COZ086-089-092>099-271100-
...SOUTHEAST COLORADO...

CITY           SKY/WX    TMP DP  RH WIND       PRES   REMARKS
PUEBLO         CLEAR     34  28  79 N8        30.17S WCI  27
LA JUNTA       CLEAR     40  26  57 SE3       30.15F
LAMAR          PTCLDY    31  28  89 S3        30.14F
SPRINGFIELD      N/A     32  28  85 SW6       30.17F WCI  26
$$



USA.gov is the U.S. government's official web portal to all federal, state and local government web resources and services.